This is the latest recevied weather packets stored in our database for station/object DO1MIT-10. If no packets are shown the sender has not sent any weather packets the latest 10 day(s).
| Time | Temp. | Humidity | Pressure | Rain* | Wind** | Luminosity | Snow |
|---|---|---|---|---|---|---|---|
| 1777475052 | 15.56° C | 39% | 1030.4 hPa | - | - | - | - |
| 1777474152 | 16.11° C | 39% | 1030.4 hPa | - | - | - | - |
| 1777473252 | 16.11° C | 40% | 1030.5 hPa | - | - | - | - |
| 1777472351 | 16.11° C | 41% | 1030.5 hPa | - | - | - | - |
| 1777471451 | 15.56° C | 41% | 1030.4 hPa | - | - | - | - |
| 1777470551 | 15° C | 41% | 1030.4 hPa | - | - | - | - |
| 1777469651 | 13.89° C | 42% | 1030.4 hPa | - | - | - | - |
| 1777468751 | 13.33° C | 42% | 1030.5 hPa | - | - | - | - |
| 1777467851 | 12.78° C | 43% | 1030.4 hPa | - | - | - | - |
| 1777466951 | 13.33° C | 42% | 1030.4 hPa | - | - | - | - |
| 1777466051 | 12.78° C | 43% | 1030.3 hPa | - | - | - | - |
| 1777465151 | 13.33° C | 43% | 1030.4 hPa | - | - | - | - |
| 1777464251 | 12.78° C | 44% | 1030.4 hPa | - | - | - | - |
| 1777463350 | 13.33° C | 45% | 1030.4 hPa | - | - | - | - |
| 1777462450 | 13.33° C | 45% | 1030.3 hPa | - | - | - | - |
| 1777461550 | 13.89° C | 45% | 1030.2 hPa | - | - | - | - |
| 1777460650 | 13.89° C | 46% | 1030.3 hPa | - | - | - | - |
| 1777459750 | 12.78° C | 46% | 1030.1 hPa | - | - | - | - |
| 1777458850 | 13.33° C | 47% | 1030.4 hPa | - | - | - | - |
| 1777457950 | 12.78° C | 48% | 1030.5 hPa | - | - | - | - |
| 1777457049 | 12.78° C | 49% | 1030.4 hPa | - | - | - | - |
| 1777456149 | 12.78° C | 49% | 1030.4 hPa | - | - | - | - |
| 1777455249 | 13.33° C | 50% | 1030.4 hPa | - | - | - | - |
| 1777454349 | 12.78° C | 52% | 1030.5 hPa | - | - | - | - |
| 1777453449 | 12.22° C | 52% | 1030.6 hPa | - | - | - | - |
* Rain since midnight (hover to see other rain measurements)
** Current wind speed in m/s (hover to see current wind gust speed)